Regional Weather Roundup
Issued by NWS

Home | Current Version | Previous Version | Text Only | Print | Product List | Glossary Off
Versions: 1 2 3 4 5 6 7 8 9 10 11 12 13 14 15 16 17 18 19 20 21 22 23 24 25 26 27 28 29 30 31 32 33 34 35 36 37 38 39 40 41 42 43 44 45 46 47 48 49 50

600
ASUS43 KFSD 172102
RWRSD

WEATHER ROUNDUP FOR SOUTH DAKOTA
NATIONAL WEATHER SERVICE SIOUX FALLS SD
300 PM CST SUN DEC 17 2017

NOTE: "FAIR" INDICATES FEW OR NO CLOUDS BELOW 12,000 FEET WITH NO
SIGNIFICANT WEATHER AND/OR OBSTRUCTIONS TO VISIBILITY.


SDZ001>005-009-010-012>017-172200-
NORTHWEST AND NORTH CENTRAL SOUTH DAKOTA

CITY           SKY/WX    TMP DP  RH WIND       PRES   REMARKS
BUFFALO          N/A     41  25  53 SW12      29.74F
FAITH            N/A     39  24  55 S13       29.83F
MOBRIDGE       SUNNY     43  27  53 SE9       29.85F
$$

SDZ012>016-024>037-041>051-057-063-072>074-172200-
SOUTHWEST AND SOUTH CENTRAL SOUTH DAKOTA

CITY           SKY/WX    TMP DP  RH WIND       PRES   REMARKS
RAPID CTY ARPT SUNNY     43  24  47 SW12      29.80F
PIERRE         CLOUDY    40  29  64 S9        29.88F
CUSTER         SUNNY     29  20  69 W13       29.78F WCI  19
ELLSWORTH AFB  SUNNY     44  25  47 SW9       29.79F
PHILIP         CLOUDY    41  30  65 S10       29.87F
PINE RIDGE     SUNNY     42  28  57 SW10      29.85F
SPEARFISH      FAIR      39  23  52 NW7       29.80S
WINNER         CLOUDY    42  31  64 CALM      29.92F
$$

SDZ004>011-016>023-039-040-172200-
NORTHEAST SOUTH DAKOTA

CITY           SKY/WX    TMP DP  RH WIND       PRES   REMARKS
ABERDEEN       PTSUNNY   37  28  70 SW7       29.92F
WATERTOWN      CLOUDY    37  33  85 W8        29.91F
BROOKINGS      CLOUDY    37  28  70 W5        29.93F
SISSETON         N/A     38  33  82 SE8       29.92F
$$

SDZ017-020-022-023-036>040-048>070-172200-
SOUTHEAST SOUTH DAKOTA

CITY           SKY/WX    TMP DP  RH WIND       PRES   REMARKS
SIOUX FALLS    CLOUDY    38  29  70 CALM      29.96F
HURON          CLOUDY    41  32  70 MISG      29.93F
MITCHELL       CLOUDY    41  32  70 SW3       29.96F
YANKTON        SUNNY     39  29  67 N5        29.96F
$$

ABBREVIATIONS USED IN REMARKS
   TC - TEMPERATURE IN CELSIUS
  WCI - WIND CHILL INDEX
   HX - HEAT INDEX
  VSB - VISIBILITY





USA.gov is the U.S. government's official web portal to all federal, state and local government web resources and services.